Location: Vigo di Fassa
(46.4167°N, 11.6667°E)
Time: 14:34:58
(UTC+00:00)

Sich 1 - Pass Details

Date: 03 March 2021
Orbit: 593 x 626 km, 82.5° (Epoch: 17 April)

Event Time Altitude Azimuth Distance (km) Brightness Sun altitude
Rises 17:27:22 0° 192° (SSW) 2,872 6.7 -5.1°
Reaches altitude 10° 17:29:35 10° 194° (SSW) 1,977 5.9 -5.5°
Maximum altitude 17:33:57 75° 279° (W) 649 3.4 -6.2°
Drops below altitude 10° 17:38:25 10° 6° (N) 2,008 5.6 -7.0°
Sets 17:40:40 0° 8° (N) 2,922 6.4 -7.4°
